Regional Weather Roundup
Issued by NWS

Home | Current Version | Previous Version | Text Only | Print | Product List | Glossary Off
Versions: 1 2 3 4 5 6 7 8 9 10 11 12 13 14 15 16 17 18 19 20 21 22 23 24 25 26 27 28 29 30 31 32 33 34 35 36 37 38 39 40 41 42 43 44 45 46 47 48 49 50

000
ASUS43 KMPX 271410
RWRMN
WEATHER ROUNDUP FOR MINNESOTA
NATIONAL WEATHER SERVICE TWIN CITIES/CHANHASSEN MN
800 AM CST SAT DEC 27 2014


NOTE: "FAIR" INDICATES FEW OR NO CLOUDS BELOW 12,000 FEET WITH NO
SIGNIFICANT WEATHER AND/OR OBSTRUCTIONS TO VISIBILITY. N/A MEANS
CURRENT SKY AND/OR WEATHER CONDITIONS ARE NOT AVAILABLE.

MNZ060>063-068>070-271500-
   Twin Cities Metro

CITY           SKY/WX    TMP DP  RH WIND       PRES   REMARKS
TWIN CITIES    LGT SNOW  23  19  85 NW14      30.05R VSB 1   WCI  11
ST PAUL        LGT SNOW  23  20  88 NW15      30.06R FOG     WCI  10
CRYSTAL        LGT SNOW  24  20  84 NW12      30.05R FOG     WCI  13
BLAINE         LGT SNOW  25  23  93 NW14      30.03S WCI  13
LAKEVILLE      LGT SNOW  21  19  93 NW16      30.03R WCI   7
EDEN PRAIRIE   LGT SNOW  23  19  85 NW10      30.05R FOG     WCI  12
SOUTH ST PAUL  CLOUDY    24  20  86 NW10      30.04R WCI  13
LAKE ELMO      LGT SNOW  25  21  86 NW10      30.03R WCI  15
$$
MNZ001>005-007-008-013>017-022>024-027-028-271500-
   Northwest Minnesota

CITY           SKY/WX    TMP DP  RH WIND       PRES   REMARKS
BEMIDJI        LGT SNOW   7   4  89 CALM      30.07S
HALLOCK        CLOUDY     7   1  78 S10       30.08F WCI  -8
ROSEAU         FLURRIES   9   3  78 S7        30.07F WCI  -3
WARROAD        FLURRIES   7   3  85 SW6       30.07F WCI  -3
THIEF RVR FALL CLOUDY     5   3  92 S7        30.09F WCI  -7
CROOKSTON      CLOUDY     7   3  85 S9        30.13F WCI  -7
FOSSTON        LGT SNOW   3   1  92 SW7       30.10S WCI  -9
DETROIT LAKES  LGT SNOW   7   3  85 CALM      30.11F
MOORHEAD       CLOUDY     3   3 100 SW3       30.16S
PARK RAPIDS    MOCLDY    11   7  84 NW7       30.06F WCI   0
MAHNOMEN       LGT SNOW   5   2  88 SW5       30.10F WCI  -4
$$
MNZ006-009>011-018-025>026-271500-
   North Central Minnesota

CITY           SKY/WX    TMP DP  RH WIND       PRES   REMARKS
BAUDETTE       CLOUDY     9   4  80 SW6       30.05F WCI  -1
FLAG ISLAND    CLOUDY     7   3  85 SW10      30.05F WCI  -8
INTL FALLS     CLOUDY     9   4  80 NW5       30.06F WCI   1
WASKISH        CLOUDY    10   7  85 CALM      30.07F
BIG FORK       FLURRIES  14   9  79 W3        30.05F
LONGVILLE      FLURRIES  14  10  85 NW5       30.07S WCI   6
GRAND RAPIDS   CLOUDY    16   9  73 N10       30.04S WCI   3
CRANE LAKE     CLOUDY    10   5  79 NW3       30.08S
ORR            CLOUDY    10   5  79 CALM      30.02S
COOK           CLOUDY    12   7  79 W5        30.04S WCI   4
WALKER         FLURRIES  11   7  83 W6        30.07S WCI   1
$$
MNZ012-019>021-037-271500-
   Northeast Minnesota

CITY           SKY/WX    TMP DP  RH WIND       PRES   REMARKS
DULUTH         CLOUDY    19  14  81 NW12      29.99F WCI   7
ELY            FLURRIES  12   9  85 N5        30.01F WCI   4
HIBBING        CLOUDY    17   8  67 N9        30.03F WCI   6
EVELETH        FLURRIES  18  12  79 N5        30.03F WCI  11
DULUTH HARBOR  CLOUDY    25  18  74 CALM      30.05F
TWO HARBORS    CLOUDY    21  16  79 NW3       29.99F
GRAND MARAIS     N/A     24  16  71 N12       30.01S WCI  13
G MARAIS ARPRT CLOUDY    16  12  86 NW7       29.95S WCI   6
$$
MNZ029>031-032-039>041-046>048-054>057-064-271500-
   West Central Minnesota

CITY           SKY/WX    TMP DP  RH WIND       PRES   REMARKS
FERGUS FALLS   CLEAR      3   0  85 NW5       30.17F WCI  -6
WHEATON        CLEAR      5   1  85 W5        30.17F WCI  -4
MORRIS         FAIR       9   3  78 NW12      30.12S WCI  -6
ALEXANDRIA     PTCLDY    10   6  84 NW7       30.08F WCI  -1
ELBOW LAKE     FAIR       5   2  87 NW10      30.12F WCI -10
WADENA         FLURRIES  10   9  92 W7        30.08F WCI   0
GLENWOOD       MOCLDY     9   7  92 W7        30.09F WCI  -3
APPLETON       PTCLDY     9   5  85 NW7       30.15S WCI  -3
BENSON         CLEAR      9   3  78 N7        30.13S WCI  -3
ORTONVILLE     PTCLDY     9   3  78 NW6       30.14F WCI  -1
MADISON        CLEAR     10   7  85 NW5       30.16S WCI   2
WILLMAR        CLOUDY    16  10  79 NW15      30.12R WCI   1
$$
MNZ033>034-036-042>043-049>051-058-059-271500-
   Central Minnesota

CITY           SKY/WX    TMP DP  RH WIND       PRES   REMARKS
ST CLOUD       CLOUDY    25  16  68 NW12      30.06S WCI  14
SAUK CENTRE    CLOUDY    15  11  84 W6        30.08F WCI   7
PAYNESVILLE    CLOUDY    16  14  90 W12       30.09R WCI   3
AITKIN         CLOUDY    21  12  68 NW5       30.04S WCI  15
PINE RIVER     CLOUDY    16  10  79 W5        30.10S WCI   9
BRAINERD       CLOUDY    19  12  74 NW10      30.06F WCI   7
STAPLES        CLOUDY    16  10  79 W9        30.07F WCI   4
LONG PRAIRIE   MOCLDY    14  12  92 W9        30.07F WCI   2
LITTLE FALLS   CLOUDY    21  14  73 NW5       30.07S WCI  15
LITCHFIELD     CLOUDY    21  19  93 NW10G17   30.08R WCI  10
BUFFALO        CLOUDY    22  17  83 NW8       30.08R WCI  12
MAPLE LAKE     CLOUDY    23  19  86 NW8       30.07R WCI  14
$$
MNZ037-044-045-052-053-271500-
   East Central Minnesota

CITY           SKY/WX    TMP DP  RH WIND       PRES   REMARKS
PRINCETON      CLOUDY    23  18  80 NW10      30.05S WCI  12
MORA           CLOUDY    21  16  79 N7        30.06S WCI  13
CAMBRIDGE      FLURRIES  25  16  68 NW7       30.03R WCI  17
RUSH CITY      CLOUDY    22  19  86 NW10      30.03F WCI  11
MOOSE LAKE     CLOUDY    19  14  79 NW8       30.02F WCI   9
HINCKLEY       CLOUDY    23  18  80 N13       30.03F WCI  11
CLOQUET        CLOUDY    18  12  79 NW10G16   30.02F WCI   6
MCGREGOR       CLOUDY    21  16  79 NW5       30.05F WCI  15
$$
MNZ071>073-080-081-089-090-097-098-271500-
   Southwest Minnesota

CITY           SKY/WX    TMP DP  RH WIND       PRES   REMARKS
MONTEVIDEO     CLEAR     10   9  92 N6        30.16R WCI   1
GRANITE FALLS  MOCLDY    11   8  85 W10       30.15S WCI  -2
CANBY          CLEAR      8   6  89 CALM      30.17R
MARSHALL       CLOUDY    12   3  67 NW15      30.14S WCI  -4
REDWOOD FALLS  CLOUDY    17  12  80 NW12G21   30.12S WCI   4
OLIVIA         CLOUDY    16  14  93 NW14G22   30.11S WCI   1
PIPESTONE        N/A     12 N/A N/A NW6       30.12S WCI   3
WINDOM         CLOUDY    16  12  86 NW16      30.11R WCI   0
WORTHINGTON    CLEAR     10 -31  13 NW10      30.12S WCI  -3
JACKSON        CLOUDY    18  12  79 NW21      30.09F WCI   1
TRACY          CLEAR     11   7  87 NW9       30.13S WCI  -2
SLAYTON        CLEAR      9   6  89 W6        30.12S WCI  -1
$$
MNZ065>067-074>077-082>085-091>093-271500-
   South Central Minnesota

CITY           SKY/WX    TMP DP  RH WIND       PRES   REMARKS
MANKATO        CLOUDY    21  16  79 NW16      30.07R WCI   7
NEW ULM        CLOUDY    18  16  93 NW14      30.10S WCI   4
ST JAMES       CLOUDY    18  16  93 W18       30.11S WCI   2
FAIRMONT       CLOUDY    19  14  79 NW20      30.07S WCI   4
GLENCOE        CLOUDY    22  21  94 NW7       30.08R FOG     WCI  14
FARIBAULT      FLURRIES  21  19  93 NW10G17   30.04R WCI  10
OWATONNA       LGT SNOW  23  19  86 NW16      30.02R WCI  10
WASECA         LGT SNOW  21  19  93 NW15G21   30.06R WCI   8
ALBERT LEA     FLURRIES  23  21  93 NW15G23   30.01S WCI  10
$$
MNZ078>079-086>088-094>096-271500-
   Southeast Minnesota

CITY           SKY/WX    TMP DP  RH WIND       PRES   REMARKS
ROCHESTER      MIX PCPN  24  21  88 NW22      29.95S WCI   9
RED WING       LGT SNOW  27  21  80 NW7       30.00R WCI  19
STANTON        LGT SNOW  25  21  85 NW14      30.01R WCI  13
DODGE CENTER   FLURRIES  23  21  93 NW17G23   29.98R WCI   9
WINONA         CLOUDY   N/A N/A N/A NW7       29.94R
AUSTIN         MOCLDY    23  19  86 NW16G23   29.98S WCI  10
PRESTON        CLOUDY    26  24  92 NW14      29.94R WCI  14
$$
ABBREVIATIONS USED IN REMARKS
   TC - TEMPERATURES IN CELSIUS
  WCI - WIND CHILL INDEX
   HX - HEAT INDEX
  VSB - VISIBILITY
$$


USA.gov is the U.S. government's official web portal to all federal, state and local government web resources and services.